Location: Unspecified
(35.7250°N, 0.0000°E)
Time: 12:53:10
(UTC+00:00)

Explorer 7 - Pass Details

Date: 22 June 2019
Orbit: 485 x 680 km, 50.3° (Epoch: 17 July)

Event Time Altitude Azimuth Distance (km) Brightness Sun altitude
Rises 08:37:26 0° 244° (WSW) 2,708 10.0 44.4°
Reaches altitude 10° 08:39:39 10° 250° (WSW) 1,850 9.2 44.9°
Maximum altitude 08:43:46 49° 326° (NW) 764 7.8 45.7°
Drops below altitude 10° 08:48:10 10° 42° (NE) 1,980 10.2 46.6°
Sets 08:50:37 0° 47° (NE) 2,921 10.9 47.1°
